Wind_Speed
10 9 9 10 10 9 8 7 6 5 5 5 5 4 3 5 5 3 7 3 9 7 7 7 6 6 6 6 7 8 10 7 7
10 9 9 10 11 10 9 7 5 5 4 5 3 3 3 7 8 4 4 5 9 8 8 8 9 8 7 7 8 8 8 9 8
9 8 8 9 9 9 8 6 5 4 3 2 1 1 3 3 8 5 2 5 9 9 8 7 10 12 12 11 8 8 8 10 11
10 8 7 8 7 6 6 5 4 4 3 3 3 4 5 5 5 3 3 7 9 9 8 9 10 10 10 10 10 11 9 10 12
12 8 7 6 6 5 5 5 4 4 4 4 4 3 4 6 3 3 5 7 8 7 8 8 9 10 9 10 11 13 13 13 12
13 9 7 6 6 5 5 4 4 4 4 5 6 5 5 3 3 5 5 6 7 6 7 8 9 9 10 11 12 12 12 12 12
15 11 7 6 6 6 5 4 4 2 4 5 4 6 6 6 4 4 6 7 5 5 6 8 9 9 9 10 11 11 11 12 12
15 7 9 8 6 7 5 4 5 2 3 0 3 2 3 3 6 6 8 7 5 4 6 8 9 9 9 9 10 11 10 11 11
14 11 10 8 5 7 11 7 3 2 4 2 3 4 4 4 6 7 6 6 3 6 7 8 8 8 8 9 10 10 10 10 10
15 14 11 10 10 9 8 4 3 2 1 2 5 6 5 6 4 7 7 1 7 7 6 7 8 8 9 10 10 11 10 11 12
17 14 14 13 10 10 7 7 5 1 3 2 4 4 4 3 4 6 4 4 3 3 5 6 7 8 9 10 11 11 11 11 12
16 18 16 12 11 9 8 5 4 3 3 3 4 5 6 5 4 2 2 2 3 4 5 6 8 10 11 12 12 12 11 12 14
18 17 14 11 11 11 8 7 3 1 3 5 4 6 6 4 2 3 2 3 2 5 7 10 11 9 12 12 12 12 12 13 14
21 19 17 14 12 9 8 7 4 1 2 4 4 5 6 3 3 4 6 6 5 4 6 11 11 10 13 12 13 12 12 13 13
21 19 18 16 14 11 8 6 4 2 4 2 3 5 3 4 4 5 3 6 8 6 8 8 11 13 11 14 13 11 14 13 13
23 21 20 15 13 11 8 9 5 3 5 2 1 4 3 3 6 7 5 5 5 5 5 10 16 16 14 14 12 14 13 14 15
23 24 21 19 17 14 11 7 7 4 6 2 1 2 1 5 6 8 8 7 7 8 10 16 19 16 16 20 14 13 14 17 17
25 24 22 19 17 15 11 10 8 6 4 5 3 2 1 4 1 8 6 6 6 9 15 16 16 19 20 18 15 16 16 17 18
24 23 21 20 18 15 12 10 8 7 6 5 4 3 1 2 3 2 2 6 9 14 15 22 21 20 23 19 18 17 18 18 23
24 23 21 19 17 15 11 11 9 8 6 5 3 2 2 5 4 4 5 18 23 21 18 17 23 24 22 19 20 17 18 21 26
Wind_Direction
113 95 91 93 103 109 111 97 93 92 80 68 60 52 76 28 38 53 43 45 4 29 17 10 354 329 313 305 296 294 292 293 300
121 104 103 102 103 103 107 106 103 107 97 85 65 32 70 87 77 58 16 3 4 12 6 359 338 316 306 294 286 292 289 291 287
142 122 114 113 111 108 105 102 104 104 93 76 64 41 43 55 53 37 343 354 19 14 10 15 22 32 31 10 292 285 281 281 282
167 142 123 122 118 115 110 108 102 97 89 79 59 55 50 75 36 23 359 11 26 17 15 21 25 28 27 14 22 21 349 291 287
180 158 143 133 128 122 111 108 105 100 80 59 40 43 41 32 45 322 326 5 29 21 22 29 25 23 41 47 38 36 37 35 31
171 170 160 153 142 128 119 109 108 127 108 63 41 37 21 5 352 351 353 354 21 24 30 32 48 52 45 46 42 36 35 26 17
170 173 181 170 155 142 127 118 115 354 270 70 17 8 5 23 337 310 319 338 20 35 50 69 55 44 39 35 30 24 20 14 8
174 183 183 174 173 164 121 117 108 155 109 31 18 352 350 356 334 323 312 331 25 60 79 59 50 41 32 28 21 18 16 11 7
189 194 176 177 161 176 131 148 156 76 35 344 295 304 334 323 330 316 321 331 46 93 70 54 43 33 27 16 11 11 5 5 358
179 180 174 176 157 157 177 177 99 136 184 351 326 326 318 307 323 316 311 343 105 88 68 52 35 28 19 5 359 355 349 350 348
180 174 176 182 189 178 148 146 176 174 275 300 321 315 319 334 282 300 308 303 205 103 56 38 27 15 6 354 349 344 341 337 339
175 183 188 187 169 149 174 170 169 204 291 320 300 309 291 299 297 241 319 9 331 307 322 334 337 332 346 343 341 339 340 334 334
186 191 172 161 154 159 169 166 186 257 346 329 333 308 302 294 245 199 182 85 35 338 330 328 338 337 341 338 337 334 332 332 331
194 188 174 163 164 174 175 167 174 101 342 343 320 286 309 253 198 202 230 256 243 291 319 326 338 335 332 331 329 327 333 331 331
191 184 166 173 175 170 174 150 122 72 348 339 289 266 283 214 214 226 247 261 288 306 309 322 320 316 325 324 323 323 325 327 328
188 175 170 171 164 159 164 143 132 60 21 3 329 233 257 223 228 237 239 277 303 300 311 300 311 317 312 319 314 315 318 320 323
183 176 171 169 168 166 158 165 133 86 40 69 263 16 234 231 242 228 221 281 270 280 290 303 313 310 305 316 309 312 315 313 316
178 176 173 167 166 161 158 150 154 145 87 60 107 47 266 325 318 218 255 276 287 284 316 306 305 304 309 314 306 310 311 309 311
174 174 171 167 164 158 149 142 141 148 137 115 62 92 124 114 329 357 282 315 326 319 302 304 301 302 307 304 296 304 307 303 309
173 175 167 161 160 152 151 143 135 138 140 133 133 139 210 238 200 278 285 296 299 302 307 298 301 298 298 284 288 293 298 299 304
Height
808 808 809 810 811 813 814 815 817 818 819 819 819 819 820 820 820 822 822 822 821 821 821 821 821 821 822 822 822 823 823 822 822
808 809 810 812 812 813 814 816 817 818 819 819 819 820 820 820 820 822 822 822 821 821 820 820 820 820 819 820 820 820 821 821 820
809 810 811 812 813 814 815 816 817 817 818 819 819 820 821 820 820 821 821 821 821 821 821 820 820 818 818 817 817 818 818 819 819
808 810 811 812 814 815 815 817 817 818 818 820 820 820 820 820 821 820 820 820 820 821 821 821 820 819 817 817 816 816 817 816 817
808 809 811 813 814 815 816 817 818 819 820 820 820 820 819 820 821 820 820 820 820 821 821 820 819 819 817 816 816 816 816 816 816
808 809 811 812 813 815 816 817 818 819 819 820 820 820 819 820 819 819 819 818 820 820 820 819 819 819 819 817 816 816 816 816 816
806 809 810 812 813 814 816 817 819 819 819 819 820 820 820 820 817 818 819 818 819 819 819 818 819 819 819 818 815 815 815 815 816
806 808 810 811 812 814 815 817 817 819 818 819 820 820 819 819 817 817 817 817 818 818 818 817 818 818 818 817 816 815 814 814 814
804 806 808 810 811 812 814 815 816 817 818 818 819 818 818 818 817 816 815 817 818 818 817 817 817 817 817 817 816 814 814 812 813
802 805 807 808 810 811 812 813 815 816 817 817 817 817 817 816 816 816 815 816 817 816 817 816 817 817 816 817 815 813 813 812 811
800 803 804 806 807 809 812 813 814 815 815 816 816 816 816 815 815 815 815 816 816 816 816 816 816 817 816 816 814 813 812 811 810
798 800 802 804 804 808 810 812 813 814 813 814 814 814 814 814 815 815 815 815 815 816 815 815 815 815 815 814 813 812 810 809 807
794 797 801 804 806 805 809 811 811 812 812 812 812 813 812 813 814 815 815 815 815 816 815 815 815 814 814 813 812 811 808 807 805
792 794 798 802 804 806 807 809 810 810 809 810 811 811 811 813 813 815 815 815 815 815 815 814 815 814 813 812 811 809 806 805 803
790 793 796 799 802 805 808 807 808 809 809 808 809 809 809 811 812 813 814 814 814 814 814 814 813 812 812 810 809 807 805 803 802
786 790 794 797 800 803 806 806 807 809 808 808 807 807 808 809 811 812 813 812 812 812 812 812 811 810 809 808 806 804 803 801 799
785 787 791 794 797 801 801 805 806 809 808 808 807 808 809 809 809 809 810 810 810 810 810 810 809 808 806 804 803 802 800 799 797
783 786 788 791 794 798 802 802 805 807 809 807 807 810 812 809 807 808 808 808 808 808 808 807 806 805 802 800 799 798 797 795 794
783 786 787 788 792 796 799 801 803 805 806 807 807 808 810 812 814 807 807 807 807 806 805 804 803 801 799 797 796 795 794 792 790
781 783 785 788 792 795 799 800 802 804 805 805 807 808 809 810 812 811 806 804 804 803 803 801 800 798 795 793 792 791 790 789 787